Year,Month,Day,Hour,Minute,Value (Times are PST for barometer in hPa)
2020,09,25,00,00,1005.05
2020,09,25,00,01,1005.05
2020,09,25,00,02,1005.05
2020,09,25,00,03,1005.05
2020,09,25,00,04,1005.05
2020,09,25,00,05,1005.05
2020,09,25,00,06,1005.05
2020,09,25,00,07,1005.05
2020,09,25,00,08,1005.05
2020,09,25,00,09,1005.05
2020,09,25,00,10,1005.05
2020,09,25,00,11,1005.05
2020,09,25,00,12,1005.05
2020,09,25,00,13,1005.05
2020,09,25,00,14,1005.04
2020,09,25,00,15,1004.88
2020,09,25,00,16,1004.88
2020,09,25,00,17,1004.88
2020,09,25,00,18,1004.88
2020,09,25,00,19,1004.88
2020,09,25,00,20,1004.88
2020,09,25,00,21,1004.88
2020,09,25,00,22,1004.88
2020,09,25,00,23,1004.88
2020,09,25,00,24,1004.88
2020,09,25,00,25,1004.88
2020,09,25,00,26,1004.88
2020,09,25,00,27,1004.88
2020,09,25,00,28,1004.88
2020,09,25,00,29,1004.85
2020,09,25,00,30,1004.61
2020,09,25,00,31,1004.61
2020,09,25,00,32,1004.61
2020,09,25,00,33,1004.61
2020,09,25,00,34,1004.61
2020,09,25,00,35,1004.61
2020,09,25,00,36,1004.61
2020,09,25,00,37,1004.61
2020,09,25,00,38,1004.61
2020,09,25,00,39,1004.61
2020,09,25,00,40,1004.61
2020,09,25,00,41,1004.61
2020,09,25,00,42,1004.61
2020,09,25,00,43,1004.61
2020,09,25,00,44,1004.59
2020,09,25,00,45,1004.44
2020,09,25,00,46,1004.44
2020,09,25,00,47,1004.44
2020,09,25,00,48,1004.44
2020,09,25,00,49,1004.44
2020,09,25,00,50,1004.44
2020,09,25,00,51,1004.44
2020,09,25,00,52,1004.44
2020,09,25,00,53,1004.44
2020,09,25,00,54,1004.44
2020,09,25,00,55,1004.44
2020,09,25,00,56,1004.44
2020,09,25,00,57,1004.44
2020,09,25,00,58,1004.44
2020,09,25,00,59,1004.40
2020,09,25,01,00,1004.06
2020,09,25,01,01,1004.06
2020,09,25,01,02,1004.06
2020,09,25,01,03,1004.06
2020,09,25,01,04,1004.06
2020,09,25,01,05,1004.06
2020,09,25,01,06,1004.06
2020,09,25,01,07,1004.06
2020,09,25,01,08,1004.06
2020,09,25,01,09,1004.06
2020,09,25,01,10,1004.06
2020,09,25,01,11,1004.06
2020,09,25,01,12,1004.06
2020,09,25,01,13,1004.06
2020,09,25,01,14,1004.05
2020,09,25,01,15,1003.79
2020,09,25,01,16,1003.79
2020,09,25,01,17,1003.79
2020,09,25,01,18,1003.79
2020,09,25,01,19,1003.79
2020,09,25,01,20,1003.79
2020,09,25,01,21,1003.79
2020,09,25,01,22,1003.79
2020,09,25,01,23,1003.79
2020,09,25,01,24,1003.79
2020,09,25,01,25,1003.79
2020,09,25,01,26,1003.79
2020,09,25,01,27,1003.79
2020,09,25,01,28,1003.79
2020,09,25,01,29,1003.75
2020,09,25,01,30,1003.42
2020,09,25,01,31,1003.42
2020,09,25,01,32,1003.42
2020,09,25,01,33,1003.42
2020,09,25,01,34,1003.42
2020,09,25,01,35,1003.42
2020,09,25,01,36,1003.42
2020,09,25,01,37,1003.42
2020,09,25,01,38,1003.42
2020,09,25,01,39,1003.42
2020,09,25,01,40,1003.42
2020,09,25,01,41,1003.42
2020,09,25,01,42,1003.42
2020,09,25,01,43,1003.42
2020,09,25,01,44,1003.41
2020,09,25,01,45,1003.25
2020,09,25,01,46,1003.25
2020,09,25,01,47,1003.25
2020,09,25,01,48,1003.25
2020,09,25,01,49,1003.25
2020,09,25,01,50,1003.25
2020,09,25,01,51,1003.25
2020,09,25,01,52,1003.25
2020,09,25,01,53,1003.25
2020,09,25,01,54,1003.25
2020,09,25,01,55,1003.25
2020,09,25,01,56,1003.25
2020,09,25,01,57,1003.25
2020,09,25,01,58,1003.25
2020,09,25,01,59,1003.23
2020,09,25,02,00,1003.01
2020,09,25,02,01,1003.01
2020,09,25,02,02,1003.01
2020,09,25,02,03,1003.01
2020,09,25,02,04,1003.01
2020,09,25,02,05,1003.01
2020,09,25,02,06,1003.01
2020,09,25,02,07,1003.01
2020,09,25,02,08,1003.01
2020,09,25,02,09,1003.01
2020,09,25,02,10,1003.01
2020,09,25,02,11,1003.01
2020,09,25,02,12,1003.01
2020,09,25,02,13,1003.01
2020,09,25,02,14,1003.00
2020,09,25,02,15,1002.88
2020,09,25,02,16,1002.88
2020,09,25,02,17,1002.88
2020,09,25,02,18,1002.88
2020,09,25,02,19,1002.88
2020,09,25,02,20,1002.88
2020,09,25,02,21,1002.88
2020,09,25,02,22,1002.88
2020,09,25,02,23,1002.88
2020,09,25,02,24,1002.88
2020,09,25,02,25,1002.88
2020,09,25,02,26,1002.88
2020,09,25,02,27,1002.88
2020,09,25,02,28,1002.88
2020,09,25,02,29,1002.87
2020,09,25,02,30,1002.64
2020,09,25,02,31,1002.64
2020,09,25,02,32,1002.64
2020,09,25,02,33,1002.64
2020,09,25,02,34,1002.64
2020,09,25,02,35,1002.64
2020,09,25,02,36,1002.64
2020,09,25,02,37,1002.64
2020,09,25,02,38,1002.64
2020,09,25,02,39,1002.64
2020,09,25,02,40,1002.64
2020,09,25,02,41,1002.64
2020,09,25,02,42,1002.64
2020,09,25,02,43,1002.64
2020,09,25,02,44,1002.62
2020,09,25,02,45,1002.20
2020,09,25,02,46,1002.20
2020,09,25,02,47,1002.20
2020,09,25,02,48,1002.20
2020,09,25,02,49,1002.20
2020,09,25,02,50,1002.20
2020,09,25,02,51,1002.20
2020,09,25,02,52,1002.20
2020,09,25,02,53,1002.20
2020,09,25,02,54,1002.20
2020,09,25,02,55,1002.20
2020,09,25,02,56,1002.20
2020,09,25,02,57,1002.20
2020,09,25,02,58,1002.20
2020,09,25,02,59,1002.18
2020,09,25,03,00,1001.73
2020,09,25,03,01,1001.73
2020,09,25,03,02,1001.73
2020,09,25,03,03,1001.73
2020,09,25,03,04,1001.73
2020,09,25,03,05,1001.73
2020,09,25,03,06,1001.73
2020,09,25,03,07,1001.73
2020,09,25,03,08,1001.73
2020,09,25,03,09,1001.73
2020,09,25,03,10,1001.73
2020,09,25,03,11,1001.73
2020,09,25,03,12,1001.73
2020,09,25,03,13,1001.73
2020,09,25,03,14,1001.70
2020,09,25,03,15,1001.39
2020,09,25,03,16,1001.39
2020,09,25,03,17,1001.39
2020,09,25,03,18,1001.39
2020,09,25,03,19,1001.39
2020,09,25,03,20,1001.39
2020,09,25,03,21,1001.39
2020,09,25,03,22,1001.39
2020,09,25,03,23,1001.39
2020,09,25,03,24,1001.39
2020,09,25,03,25,1001.39
2020,09,25,03,26,1001.39
2020,09,25,03,27,1001.39
2020,09,25,03,28,1001.39
2020,09,25,03,29,1001.39
2020,09,25,03,30,1001.00
2020,09,25,03,31,1000.98
2020,09,25,03,32,1000.98
2020,09,25,03,33,1000.98
2020,09,25,03,34,1000.98
2020,09,25,03,35,1000.98
2020,09,25,03,36,1000.98
2020,09,25,03,37,1000.98
2020,09,25,03,38,1000.98
2020,09,25,03,39,1000.98
2020,09,25,03,40,1000.98
2020,09,25,03,41,1000.98
2020,09,25,03,42,1000.98
2020,09,25,03,43,1000.98
2020,09,25,03,44,1000.98
2020,09,25,03,45,1000.82
2020,09,25,03,46,1000.81
2020,09,25,03,47,1000.81
2020,09,25,03,48,1000.81
2020,09,25,03,49,1000.81
2020,09,25,03,50,1000.81
2020,09,25,03,51,1000.81
2020,09,25,03,52,1000.81
2020,09,25,03,53,1000.81
2020,09,25,03,54,1000.81
2020,09,25,03,55,1000.81
2020,09,25,03,56,1000.81
2020,09,25,03,57,1000.81
2020,09,25,03,58,1000.81
2020,09,25,03,59,1000.81
2020,09,25,04,00,1000.75
2020,09,25,04,01,1000.75
2020,09,25,04,02,1000.75
2020,09,25,04,03,1000.75
2020,09,25,04,04,1000.75
2020,09,25,04,05,1000.75
2020,09,25,04,06,1000.75
2020,09,25,04,07,1000.75
2020,09,25,04,08,1000.75
2020,09,25,04,09,1000.75
2020,09,25,04,10,1000.75
2020,09,25,04,11,1000.75
2020,09,25,04,12,1000.75
2020,09,25,04,13,1000.75
2020,09,25,04,14,1000.75
2020,09,25,04,15,1000.41
2020,09,25,04,16,1000.41
2020,09,25,04,17,1000.41
2020,09,25,04,18,1000.41
2020,09,25,04,19,1000.41
2020,09,25,04,20,1000.41
2020,09,25,04,21,1000.41
2020,09,25,04,22,1000.41
2020,09,25,04,23,1000.41
2020,09,25,04,24,1000.41
2020,09,25,04,25,1000.41
2020,09,25,04,26,1000.41
2020,09,25,04,27,1000.41
2020,09,25,04,28,1000.41
2020,09,25,04,29,1000.41
2020,09,25,04,30,999.99
2020,09,25,04,31,999.97
2020,09,25,04,32,999.97
2020,09,25,04,33,999.97
2020,09,25,04,34,999.97
2020,09,25,04,35,999.97
2020,09,25,04,36,999.97
2020,09,25,04,37,999.97
2020,09,25,04,38,999.97
2020,09,25,04,39,999.97
2020,09,25,04,40,999.97
2020,09,25,04,41,999.97
2020,09,25,04,42,999.97
2020,09,25,04,43,999.97
2020,09,25,04,44,999.97
2020,09,25,04,45,999.66
2020,09,25,04,46,999.66
2020,09,25,04,47,999.66
2020,09,25,04,48,999.66
2020,09,25,04,49,999.66
2020,09,25,04,50,999.66
2020,09,25,04,51,999.66
2020,09,25,04,52,999.66
2020,09,25,04,53,999.66
2020,09,25,04,54,999.66
2020,09,25,04,55,999.66
2020,09,25,04,56,999.66
2020,09,25,04,57,999.66
2020,09,25,04,58,999.66
2020,09,25,04,59,999.66
2020,09,25,05,00,999.09
2020,09,25,05,01,999.09
2020,09,25,05,02,999.09
2020,09,25,05,03,999.09
2020,09,25,05,04,999.09
2020,09,25,05,05,999.09
2020,09,25,05,06,999.09
2020,09,25,05,07,999.09
2020,09,25,05,08,999.09
2020,09,25,05,09,999.09
2020,09,25,05,10,999.09
2020,09,25,05,11,999.09
2020,09,25,05,12,999.09
2020,09,25,05,13,999.09
2020,09,25,05,14,999.09
2020,09,25,05,15,998.73
2020,09,25,05,16,998.71
2020,09,25,05,17,998.71
2020,09,25,05,18,998.71
2020,09,25,05,19,998.71
2020,09,25,05,20,998.71
2020,09,25,05,21,998.71
2020,09,25,05,22,998.71
2020,09,25,05,23,998.71
2020,09,25,05,24,998.71
2020,09,25,05,25,998.71
2020,09,25,05,26,998.71
2020,09,25,05,27,998.71
2020,09,25,05,28,998.71
2020,09,25,05,29,998.71
2020,09,25,05,30,998.41
2020,09,25,05,31,998.41
2020,09,25,05,32,998.41
2020,09,25,05,33,998.41
2020,09,25,05,34,998.41
2020,09,25,05,35,998.41
2020,09,25,05,36,998.41
2020,09,25,05,37,998.41
2020,09,25,05,38,998.41
2020,09,25,05,39,998.41
2020,09,25,05,40,998.41
2020,09,25,05,41,998.41
2020,09,25,05,42,998.41
2020,09,25,05,43,998.41
2020,09,25,05,44,998.41
2020,09,25,05,45,998.18
2020,09,25,05,46,998.17
2020,09,25,05,47,998.17
2020,09,25,05,48,998.17
2020,09,25,05,49,998.17
2020,09,25,05,50,998.17
2020,09,25,05,51,998.17
2020,09,25,05,52,998.17
2020,09,25,05,53,998.17
2020,09,25,05,54,998.17
2020,09,25,05,55,998.17
2020,09,25,05,56,998.17
2020,09,25,05,57,998.17
2020,09,25,05,58,998.17
2020,09,25,05,59,998.17
2020,09,25,06,00,998.14
2020,09,25,06,01,998.14
2020,09,25,06,02,998.14
2020,09,25,06,03,998.14
2020,09,25,06,04,998.14
2020,09,25,06,05,998.14
2020,09,25,06,06,998.14
2020,09,25,06,07,998.14
2020,09,25,06,08,998.14
2020,09,25,06,09,998.14
2020,09,25,06,10,998.14
2020,09,25,06,11,998.14
2020,09,25,06,12,998.14
2020,09,25,06,13,998.14
2020,09,25,06,14,998.14
2020,09,25,06,15,998.10
2020,09,25,06,16,998.10
2020,09,25,06,17,998.10
2020,09,25,06,18,998.10
2020,09,25,06,19,998.10
2020,09,25,06,20,998.10
2020,09,25,06,21,998.10
2020,09,25,06,22,998.10
2020,09,25,06,23,998.10
2020,09,25,06,24,998.10
2020,09,25,06,25,998.10
2020,09,25,06,26,998.10
2020,09,25,06,27,998.10
2020,09,25,06,28,998.10
2020,09,25,06,29,998.10
2020,09,25,06,30,997.72
2020,09,25,06,31,997.70
2020,09,25,06,32,997.70
2020,09,25,06,33,997.70
2020,09,25,06,34,997.70
2020,09,25,06,35,997.70
2020,09,25,06,36,997.70
2020,09,25,06,37,997.70
2020,09,25,06,38,997.70
2020,09,25,06,39,997.70
2020,09,25,06,40,997.70
2020,09,25,06,41,997.70
2020,09,25,06,42,997.70
2020,09,25,06,43,997.70
2020,09,25,06,44,997.70
2020,09,25,06,45,998.07
2020,09,25,06,46,998.07
2020,09,25,06,47,998.07
2020,09,25,06,48,998.07
2020,09,25,06,49,998.07
2020,09,25,06,50,998.07
2020,09,25,06,51,998.07
2020,09,25,06,52,998.07
2020,09,25,06,53,998.07
2020,09,25,06,54,998.07
2020,09,25,06,55,998.07
2020,09,25,06,56,998.07
2020,09,25,06,57,998.07
2020,09,25,06,58,998.07
2020,09,25,06,59,998.07
2020,09,25,07,00,997.87
2020,09,25,07,01,997.87
2020,09,25,07,02,997.87
2020,09,25,07,03,997.87
2020,09,25,07,04,997.87
2020,09,25,07,05,997.87
2020,09,25,07,06,997.87
2020,09,25,07,07,997.87
2020,09,25,07,08,997.87
2020,09,25,07,09,997.87
2020,09,25,07,10,997.87
2020,09,25,07,11,997.87
2020,09,25,07,12,997.87
2020,09,25,07,13,997.87
2020,09,25,07,14,997.87
2020,09,25,07,15,997.70
2020,09,25,07,16,997.70
2020,09,25,07,17,997.70
2020,09,25,07,18,997.70
2020,09,25,07,19,997.70
2020,09,25,07,20,997.70
2020,09,25,07,21,997.70
2020,09,25,07,22,997.70
2020,09,25,07,23,997.70
2020,09,25,07,24,997.70
2020,09,25,07,25,997.70
2020,09,25,07,26,997.70
2020,09,25,07,27,997.70
2020,09,25,07,28,997.70
2020,09,25,07,29,997.70
2020,09,25,07,30,997.51
2020,09,25,07,31,997.50
2020,09,25,07,32,997.50
2020,09,25,07,33,997.50
2020,09,25,07,34,997.50
2020,09,25,07,35,997.50
2020,09,25,07,36,997.50
2020,09,25,07,37,997.50
2020,09,25,07,38,997.50
2020,09,25,07,39,997.50
2020,09,25,07,40,997.50
2020,09,25,07,41,997.50
2020,09,25,07,42,997.50
2020,09,25,07,43,997.50
2020,09,25,07,44,997.50
2020,09,25,07,45,998.34
2020,09,25,07,46,998.34
2020,09,25,07,47,998.34
2020,09,25,07,48,998.34
2020,09,25,07,49,998.34
2020,09,25,07,50,998.34
2020,09,25,07,51,998.34
2020,09,25,07,52,998.34
2020,09,25,07,53,998.34
2020,09,25,07,54,998.34
2020,09,25,07,55,998.34
2020,09,25,07,56,998.34
2020,09,25,07,57,998.34
2020,09,25,07,58,998.34
2020,09,25,07,59,998.34
2020,09,25,08,00,998.07
2020,09,25,08,01,998.07
2020,09,25,08,02,998.07
2020,09,25,08,03,998.07
2020,09,25,08,04,998.07
2020,09,25,08,05,998.07
2020,09,25,08,06,998.07
2020,09,25,08,07,998.07
2020,09,25,08,08,998.07
2020,09,25,08,09,998.07
2020,09,25,08,10,998.07
2020,09,25,08,11,998.07
2020,09,25,08,12,998.07
2020,09,25,08,13,998.07
2020,09,25,08,14,998.07
2020,09,25,08,15,998.07
2020,09,25,08,16,998.07
2020,09,25,08,17,998.07
2020,09,25,08,18,998.07
2020,09,25,08,19,998.07
2020,09,25,08,20,998.07
2020,09,25,08,21,998.07
2020,09,25,08,22,998.07
2020,09,25,08,23,998.07
2020,09,25,08,24,998.07
2020,09,25,08,25,998.07
2020,09,25,08,26,998.07
2020,09,25,08,27,998.07
2020,09,25,08,28,998.07
2020,09,25,08,29,998.07
2020,09,25,08,30,997.87
2020,09,25,08,31,997.87
2020,09,25,08,32,997.87
2020,09,25,08,33,997.87
2020,09,25,08,34,997.87
2020,09,25,08,35,997.87
2020,09,25,08,36,997.87
2020,09,25,08,37,997.87
2020,09,25,08,38,997.87
2020,09,25,08,39,997.87
2020,09,25,08,40,997.87
2020,09,25,08,41,997.87
2020,09,25,08,42,997.87
2020,09,25,08,43,997.87
2020,09,25,08,44,997.87
2020,09,25,08,45,998.27
2020,09,25,08,46,998.27
2020,09,25,08,47,998.27
2020,09,25,08,48,998.27
2020,09,25,08,49,998.27
2020,09,25,08,50,998.27
2020,09,25,08,51,998.27
2020,09,25,08,52,998.27
2020,09,25,08,53,998.27
2020,09,25,08,54,998.27
2020,09,25,08,55,998.27
2020,09,25,08,56,998.27
2020,09,25,08,57,998.27
2020,09,25,08,58,998.27
2020,09,25,08,59,998.27
2020,09,25,09,00,998.38
2020,09,25,09,01,998.38
2020,09,25,09,02,998.38
2020,09,25,09,03,998.38
2020,09,25,09,04,998.38
2020,09,25,09,05,998.38
2020,09,25,09,06,998.38
2020,09,25,09,07,998.38
2020,09,25,09,08,998.38
2020,09,25,09,09,998.38
2020,09,25,09,10,998.38
2020,09,25,09,11,998.38
2020,09,25,09,12,998.38
2020,09,25,09,13,998.38
2020,09,25,09,14,998.38
2020,09,25,09,15,998.61
2020,09,25,09,16,998.61
2020,09,25,09,17,998.61
2020,09,25,09,18,998.61
2020,09,25,09,19,998.61
2020,09,25,09,20,998.61
2020,09,25,09,21,998.61
2020,09,25,09,22,998.61
2020,09,25,09,23,998.61
2020,09,25,09,24,998.61
2020,09,25,09,25,998.61
2020,09,25,09,26,998.61
2020,09,25,09,27,998.61
2020,09,25,09,28,998.61
2020,09,25,09,29,998.61
2020,09,25,09,30,999.02
2020,09,25,09,31,999.02
2020,09,25,09,32,999.02
2020,09,25,09,33,999.02
2020,09,25,09,34,999.02
2020,09,25,09,35,999.02
2020,09,25,09,36,999.02
2020,09,25,09,37,999.02
2020,09,25,09,38,999.02
2020,09,25,09,39,999.02
2020,09,25,09,40,999.02
2020,09,25,09,41,999.02
2020,09,25,09,42,999.02
2020,09,25,09,43,999.02
2020,09,25,09,44,999.02
2020,09,25,09,45,999.12
2020,09,25,09,46,999.12
2020,09,25,09,47,999.12
2020,09,25,09,48,999.12
2020,09,25,09,49,999.12
2020,09,25,09,50,999.12
2020,09,25,09,51,999.12
2020,09,25,09,52,999.12
2020,09,25,09,53,999.12
2020,09,25,09,54,999.12
2020,09,25,09,55,999.12
2020,09,25,09,56,999.12
2020,09,25,09,57,999.12
2020,09,25,09,58,999.12
2020,09,25,09,59,999.12
2020,09,25,10,00,998.99
2020,09,25,10,01,998.99
2020,09,25,10,02,998.99
2020,09,25,10,03,998.99
2020,09,25,10,04,998.99
2020,09,25,10,05,998.99
2020,09,25,10,06,998.99
2020,09,25,10,07,998.99
2020,09,25,10,08,998.99
2020,09,25,10,09,998.99
2020,09,25,10,10,998.99
2020,09,25,10,11,998.99
2020,09,25,10,12,998.99
2020,09,25,10,13,998.99
2020,09,25,10,14,998.99
2020,09,25,10,15,999.34
2020,09,25,10,16,999.36
2020,09,25,10,17,999.36
2020,09,25,10,18,999.36
2020,09,25,10,19,999.36
2020,09,25,10,20,999.36
2020,09,25,10,21,999.36
2020,09,25,10,22,999.36
2020,09,25,10,23,999.36
2020,09,25,10,24,999.36
2020,09,25,10,25,999.36
2020,09,25,10,26,999.36
2020,09,25,10,27,999.36
2020,09,25,10,28,999.36
2020,09,25,10,29,999.36
2020,09,25,10,30,999.53
2020,09,25,10,31,999.53
2020,09,25,10,32,999.53
2020,09,25,10,33,999.53
2020,09,25,10,34,999.53
2020,09,25,10,35,999.53
2020,09,25,10,36,999.53
2020,09,25,10,37,999.53
2020,09,25,10,38,999.53
2020,09,25,10,39,999.53
2020,09,25,10,40,999.53
2020,09,25,10,41,999.53
2020,09,25,10,42,999.53
2020,09,25,10,43,999.53
2020,09,25,10,44,999.53
2020,09,25,10,45,999.76
2020,09,25,10,46,999.76
2020,09,25,10,47,999.76
2020,09,25,10,48,999.76
2020,09,25,10,49,999.76
2020,09,25,10,50,999.76
2020,09,25,10,51,999.76
2020,09,25,10,52,999.76
2020,09,25,10,53,999.76
2020,09,25,10,54,999.76
2020,09,25,10,55,999.76
2020,09,25,10,56,999.76
2020,09,25,10,57,999.76
2020,09,25,10,58,999.76
2020,09,25,10,59,999.76
2020,09,25,11,00,999.73
2020,09,25,11,01,999.73
2020,09,25,11,02,999.73
2020,09,25,11,03,999.73
2020,09,25,11,04,999.73
2020,09,25,11,05,999.73
2020,09,25,11,06,999.73
2020,09,25,11,07,999.73
2020,09,25,11,08,999.73
2020,09,25,11,09,999.73
2020,09,25,11,10,999.73
2020,09,25,11,11,999.73
2020,09,25,11,12,999.73
2020,09,25,11,13,999.73
2020,09,25,11,14,999.73
2020,09,25,11,15,1000.05
2020,09,25,11,16,1000.07
2020,09,25,11,17,1000.07
2020,09,25,11,18,1000.07
2020,09,25,11,19,1000.07
2020,09,25,11,20,1000.07
2020,09,25,11,21,1000.07
2020,09,25,11,22,1000.07
2020,09,25,11,23,1000.07
2020,09,25,11,24,1000.07
2020,09,25,11,25,1000.07
2020,09,25,11,26,1000.07
2020,09,25,11,27,1000.07
2020,09,25,11,28,1000.07
2020,09,25,11,29,1000.07
2020,09,25,11,30,1000.17
2020,09,25,11,31,1000.17
2020,09,25,11,32,1000.17
2020,09,25,11,33,1000.17
2020,09,25,11,34,1000.17
2020,09,25,11,35,1000.17
2020,09,25,11,36,1000.17
2020,09,25,11,37,1000.17
2020,09,25,11,38,1000.17
2020,09,25,11,39,1000.17
2020,09,25,11,40,1000.17
2020,09,25,11,41,1000.17
2020,09,25,11,42,1000.17
2020,09,25,11,43,1000.17
2020,09,25,11,44,1000.17
2020,09,25,11,45,1000.24
2020,09,25,11,46,1000.24
2020,09,25,11,47,1000.24
2020,09,25,11,48,1000.24
2020,09,25,11,49,1000.24
2020,09,25,11,50,1000.24
2020,09,25,11,51,1000.24
2020,09,25,11,52,1000.24
2020,09,25,11,53,1000.24
2020,09,25,11,54,1000.24
2020,09,25,11,55,1000.24
2020,09,25,11,56,1000.24
2020,09,25,11,57,1000.24
2020,09,25,11,58,1000.24
2020,09,25,11,59,1000.24
2020,09,25,12,00,1000.33
2020,09,25,12,01,1000.34
2020,09,25,12,02,1000.34
2020,09,25,12,03,1000.34
2020,09,25,12,04,1000.34
2020,09,25,12,05,1000.34
2020,09,25,12,06,1000.34
2020,09,25,12,07,1000.34
2020,09,25,12,08,1000.34
2020,09,25,12,09,1000.34
2020,09,25,12,10,1000.34
2020,09,25,12,11,1000.34
2020,09,25,12,12,1000.34
2020,09,25,12,13,1000.34
2020,09,25,12,14,1000.34
2020,09,25,12,15,1000.69
2020,09,25,12,16,1000.71
2020,09,25,12,17,1000.71
2020,09,25,12,18,1000.71
2020,09,25,12,19,1000.71
2020,09,25,12,20,1000.71
2020,09,25,12,21,1000.71
2020,09,25,12,22,1000.71
2020,09,25,12,23,1000.71
2020,09,25,12,24,1000.71
2020,09,25,12,25,1000.71
2020,09,25,12,26,1000.71
2020,09,25,12,27,1000.71
2020,09,25,12,28,1000.71
2020,09,25,12,29,1000.71
2020,09,25,12,30,1000.75
2020,09,25,12,31,1000.75
2020,09,25,12,32,1000.75
2020,09,25,12,33,1000.75
2020,09,25,12,34,1000.75
2020,09,25,12,35,1000.75
2020,09,25,12,36,1000.75
2020,09,25,12,37,1000.75
2020,09,25,12,38,1000.75
2020,09,25,12,39,1000.75
2020,09,25,12,40,1000.75
2020,09,25,12,41,1000.75
2020,09,25,12,42,1000.75
2020,09,25,12,43,1000.75
2020,09,25,12,44,1000.75
2020,09,25,12,45,1000.88
2020,09,25,12,46,1000.88
2020,09,25,12,47,1000.88
2020,09,25,12,48,1000.88
2020,09,25,12,49,1000.88
2020,09,25,12,50,1000.88
2020,09,25,12,51,1000.88
2020,09,25,12,52,1000.88
2020,09,25,12,53,1000.88
2020,09,25,12,54,1000.88
2020,09,25,12,55,1000.88
2020,09,25,12,56,1000.88
2020,09,25,12,57,1000.88
2020,09,25,12,58,1000.88
2020,09,25,12,59,1000.88
2020,09,25,13,00,1001.19
2020,09,25,13,01,1001.19
2020,09,25,13,02,1001.19
2020,09,25,13,03,1001.19
2020,09,25,13,04,1001.19
2020,09,25,13,05,1001.19
2020,09,25,13,06,1001.19
2020,09,25,13,07,1001.19
2020,09,25,13,08,1001.19
2020,09,25,13,09,1001.19
2020,09,25,13,10,1001.19
2020,09,25,13,11,1001.19
2020,09,25,13,12,1001.19
2020,09,25,13,13,1001.19
2020,09,25,13,14,1001.19
2020,09,25,13,15,1001.22
2020,09,25,13,16,1001.22
2020,09,25,13,17,1001.22
2020,09,25,13,18,1001.22
2020,09,25,13,19,1001.22
2020,09,25,13,20,1001.22
2020,09,25,13,21,1001.22
2020,09,25,13,22,1001.22
2020,09,25,13,23,1001.22
2020,09,25,13,24,1001.22
2020,09,25,13,25,1001.22
2020,09,25,13,26,1001.22
2020,09,25,13,27,1001.22
2020,09,25,13,28,1001.22
2020,09,25,13,29,1001.22
2020,09,25,13,30,1001.45
2020,09,25,13,31,1001.46
2020,09,25,13,32,1001.46
2020,09,25,13,33,1001.46
2020,09,25,13,34,1001.46
2020,09,25,13,35,1001.46
2020,09,25,13,36,1001.46
2020,09,25,13,37,1001.46
2020,09,25,13,38,1001.46
2020,09,25,13,39,1001.46
2020,09,25,13,40,1001.46
2020,09,25,13,41,1001.46
2020,09,25,13,42,1001.46
2020,09,25,13,43,1001.46
2020,09,25,13,44,1001.46
2020,09,25,13,45,1001.91
2020,09,25,13,46,1001.93
2020,09,25,13,47,1001.93
2020,09,25,13,48,1001.93
2020,09,25,13,49,1001.93
2020,09,25,13,50,1001.93
2020,09,25,13,51,1001.93
2020,09,25,13,52,1001.93
2020,09,25,13,53,1001.93
2020,09,25,13,54,1001.93
2020,09,25,13,55,1001.93
2020,09,25,13,56,1001.93
2020,09,25,13,57,1001.93
2020,09,25,13,58,1001.93
2020,09,25,13,59,1001.93
2020,09,25,14,00,1002.22
2020,09,25,14,01,1002.24
2020,09,25,14,02,1002.24
2020,09,25,14,03,1002.24
2020,09,25,14,04,1002.24
2020,09,25,14,05,1002.24
2020,09,25,14,06,1002.24
2020,09,25,14,07,1002.24
2020,09,25,14,08,1002.24
2020,09,25,14,09,1002.24
2020,09,25,14,10,1002.24
2020,09,25,14,11,1002.24
2020,09,25,14,12,1002.24
2020,09,25,14,13,1002.24
2020,09,25,14,14,1002.24
2020,09,25,14,15,1002.34
2020,09,25,14,16,1002.34
2020,09,25,14,17,1002.34
2020,09,25,14,18,1002.34
2020,09,25,14,19,1002.34
2020,09,25,14,20,1002.34
2020,09,25,14,21,1002.34
2020,09,25,14,22,1002.34
2020,09,25,14,23,1002.34
2020,09,25,14,24,1002.34
2020,09,25,14,25,1002.34
2020,09,25,14,26,1002.34
2020,09,25,14,27,1002.34
2020,09,25,14,28,1002.34
2020,09,25,14,29,1002.34
2020,09,25,14,30,1002.56
2020,09,25,14,31,1002.57
2020,09,25,14,32,1002.57
2020,09,25,14,33,1002.57
2020,09,25,14,34,1002.57
2020,09,25,14,35,1002.57
2020,09,25,14,36,1002.57
2020,09,25,14,37,1002.57
2020,09,25,14,38,1002.57
2020,09,25,14,39,1002.57
2020,09,25,14,40,1002.57
2020,09,25,14,41,1002.57
2020,09,25,14,42,1002.57
2020,09,25,14,43,1002.57
2020,09,25,14,44,1002.57
2020,09,25,14,45,1002.84
2020,09,25,14,46,1002.85
2020,09,25,14,47,1002.85
2020,09,25,14,48,1002.85
2020,09,25,14,49,1002.85
2020,09,25,14,50,1002.85
2020,09,25,14,51,1002.85
2020,09,25,14,52,1002.85
2020,09,25,14,53,1002.85
2020,09,25,14,54,1002.85
2020,09,25,14,55,1002.85
2020,09,25,14,56,1002.85
2020,09,25,14,57,1002.85
2020,09,25,14,58,1002.85
2020,09,25,14,59,1002.85
2020,09,25,15,00,1003.27
2020,09,25,15,01,1003.29
2020,09,25,15,02,1003.29
2020,09,25,15,03,1003.29
2020,09,25,15,04,1003.29
2020,09,25,15,05,1003.29
2020,09,25,15,06,1003.29
2020,09,25,15,07,1003.29
2020,09,25,15,08,1003.29
2020,09,25,15,09,1003.29
2020,09,25,15,10,1003.29
2020,09,25,15,11,1003.29
2020,09,25,15,12,1003.29
2020,09,25,15,13,1003.29
2020,09,25,15,14,1003.29
2020,09,25,15,15,1003.42
2020,09,25,15,16,1003.42
2020,09,25,15,17,1003.42
2020,09,25,15,18,1003.42
2020,09,25,15,19,1003.42
2020,09,25,15,20,1003.42
2020,09,25,15,21,1003.42
2020,09,25,15,22,1003.42
2020,09,25,15,23,1003.42
2020,09,25,15,24,1003.42
2020,09,25,15,25,1003.42
2020,09,25,15,26,1003.42
2020,09,25,15,27,1003.42
2020,09,25,15,28,1003.42
2020,09,25,15,29,1003.42
2020,09,25,15,30,1003.56
2020,09,25,15,31,1003.56
2020,09,25,15,32,1003.56
2020,09,25,15,33,1003.56
2020,09,25,15,34,1003.56
2020,09,25,15,35,1003.56
2020,09,25,15,36,1003.56
2020,09,25,15,37,1003.56
2020,09,25,15,38,1003.56
2020,09,25,15,39,1003.56
2020,09,25,15,40,1003.56
2020,09,25,15,41,1003.56
2020,09,25,15,42,1003.56
2020,09,25,15,43,1003.56
2020,09,25,15,44,1003.56
2020,09,25,15,45,1003.91
2020,09,25,15,46,1003.93
2020,09,25,15,47,1003.93
2020,09,25,15,48,1003.93
2020,09,25,15,49,1003.93
2020,09,25,15,50,1003.93
2020,09,25,15,51,1003.93
2020,09,25,15,52,1003.93
2020,09,25,15,53,1003.93
2020,09,25,15,54,1003.93
2020,09,25,15,55,1003.93
2020,09,25,15,56,1003.93
2020,09,25,15,57,1003.93
2020,09,25,15,58,1003.93
2020,09,25,15,59,1003.93
2020,09,25,16,00,1004.35
2020,09,25,16,01,1004.37
2020,09,25,16,02,1004.37
2020,09,25,16,03,1004.37
2020,09,25,16,04,1004.37
2020,09,25,16,05,1004.37
2020,09,25,16,06,1004.37
2020,09,25,16,07,1004.37
2020,09,25,16,08,1004.37
2020,09,25,16,09,1004.37
2020,09,25,16,10,1004.37
2020,09,25,16,11,1004.37
2020,09,25,16,12,1004.37